• Join FlightAware (Why Join?)
  • Login
  • US Flag 
09:44PM EDT


 

Airport Tracker/Info


-or-


 

Live Flight TrackerFlight Track Log ✈ FSR411 ✈ 22-Aug-2013 ✈ KMSP - KLNK

Flight Track Log - Related Links

Times and Time Zones

All times are in EDT time to prevent confusion due to time zone crossing. See the FSR411 flight status page for this flight to view local times or setup timezone preferences in your user account.

Time Position Orientation Groundspeed Altitude Reporting Facility
EDT Latitude Longitude Course Direction KTS MPH feet Rate Location/Type
02:15PM 44.8278 -93.2322 214° Southwest 194 223 3,500  Level Minneapolis Center
02:17PM 44.7736 -93.2775 211° Southwest 232 267 6,500 1,680 Climbing Minneapolis Center
02:18PM 44.7056 -93.3647 222° Southwest 289 333 7,000 900 Climbing Minneapolis Center
02:19PM 44.6506 -93.4428 225° Southwest 283 326 8,400 2,160 Climbing Minneapolis Center
02:20PM 44.5772 -93.4989 209° Southwest 299 344 11,500 3,000 Climbing Minneapolis Center
02:21PM 44.3905 -93.6842 214° Southwest  Level Estimated
02:21PM 44.4917 -93.5678 210° Southwest 354 407 14,600  Level Minneapolis Center
02:22PM 44.3944 -93.6453 210° Southwest 404 465 17,600 2,820 Climbing Minneapolis Center
02:23PM 44.2958 -93.7267 211° Southwest 410 472 20,500 3,000 Climbing Minneapolis Center
02:24PM 44.1742 -93.8250 210° Southwest 419 482 23,900 2,820 Climbing Minneapolis Center
02:25PM 44.0697 -93.9083 210° Southwest 428 493 26,400 2,220 Climbing Minneapolis Center
02:26PM 43.9650 -93.9906 209° Southwest 433 498 28,600 1,680 Climbing Minneapolis Center
02:27PM 43.8583 -94.0744 210° Southwest 439 505 29,900 660 Climbing Minneapolis Center
02:28PM 43.7475 -94.1617 210° Southwest 454 522 30,000  Climbing Minneapolis Center
02:29PM 43.6197 -94.2631 210° Southwest 458 527 30,000  Level Minneapolis Center
02:30PM 43.5064 -94.3508 209° Southwest 464 534 30,000  Level Minneapolis Center
02:31PM 43.3928 -94.4394 210° Southwest 468 539 30,000  Level Minneapolis Center
02:32PM 43.2794 -94.5261 209° Southwest 467 537 30,000  Level Minneapolis Center
02:33PM 43.1586 -94.5969 203° Southwest 469 540 30,000  Level Minneapolis Center
02:34PM 43.0142 -94.6803 203° Southwest 469 540 30,000  Level Minneapolis Center
02:35PM 42.9072 -94.7833 215° Southwest 469 540 30,000  Level Minneapolis Center
02:36PM 42.8025 -94.8878 216° Southwest 467 537 30,000  Level Minneapolis Center
02:37PM 42.6953 -94.9950 216° Southwest 469 540 30,000  Level Minneapolis Center
02:38PM 42.5903 -95.0989 216° Southwest 467 537 30,000  Level Minneapolis Center
02:39PM 42.4864 -95.1992 215° Southwest 462 532 30,000 -540 Level Minneapolis Center
02:40PM 42.4044 -95.2811 216° Southwest 458 527 29,000 -1,800 Descending Minneapolis Center
02:41PM 42.2594 -95.4219 216° Southwest 460 529 26,400 -2,160 Descending Minneapolis Center
02:42PM 42.1586 -95.5203 216° Southwest 451 519 24,600 -1,740 Descending Minneapolis Center
02:43PM 42.0592 -95.6167 216° Southwest 444 511 22,900 -1,680 Descending Minneapolis Center
02:44PM 41.9636 -95.7106 216° Southwest 430 495 21,200 -1,620 Descending Minneapolis Center
02:45PM 41.8883 -95.7825 215° Southwest 420 483 19,600 -1,800 Descending Minneapolis Center
02:47PM 41.7772 -95.8886 215° Southwest 412 474 17,600 -1,980 Descending Minneapolis Center
02:48PM 41.6625 -96.0106 218° Southwest 353 406 15,300 -1,980 Descending Minneapolis Center
02:49PM 41.5972 -96.0608 210° Southwest 353 406 13,500 -1,680 Descending Minneapolis Center
02:50PM 41.5067 -96.1539 218° Southwest 337 388 11,900 -1,200 Descending Minneapolis Center
02:51PM 41.4450 -96.2044 212° Southwest 340 391 11,100 -600 Descending Minneapolis Center
02:52PM 41.3572 -96.2872 215° Southwest 329 379 10,700 -720 Descending Minneapolis Center
02:53PM 41.2928 -96.3469 215° Southwest 268 308 9,800 -840 Descending Minneapolis Center
02:54PM 41.2194 -96.4131 214° Southwest 275 316 9,000 -900 Descending Minneapolis Center
02:55PM 41.1667 -96.4742 221° Southwest 257 296 8,000 -1,440 Descending Minneapolis Center
02:56PM 41.1167 -96.5431 226° Southwest 264 304 6,100 -1,620 Descending Minneapolis Center
02:57PM 41.0708 -96.6261 234° Southwest 264 304 4,600 -1,200 Descending Minneapolis Center
02:58PM 41.0150 -96.6975 224° Southwest 250 288 3,600 -840 Descending Minneapolis Center
02:59PM 40.9744 -96.7514 225° Southwest 219 252 3,000 -420 Descending Minneapolis Center
03:00PM 40.9306 -96.7889 213° Southwest 173 199 2,800 -600 Descending Minneapolis Center
03:01PM 40.8869 -96.7933 184° South 132 152 1,900 -540 Descending Minneapolis Center
03:02PM 40.8589 -96.7631 141° Southeast 152 175 1,600 -240 Descending Minneapolis Center